Location: ??????
(38.3184°N, 23.6932°E)
Time: 02:17:57
(UTC+00:00)

Cosmos 1356 - Pass Details

Date: 16 October 2021
Orbit: 433 x 436 km, 81.1° (Epoch: 04 December)

Event Time Altitude Azimuth Distance (km) Brightness Sun altitude
Rises 16:10:38 0° 358° (N) 2,432 7.1 -5.6°
Reaches altitude 10° 16:12:46 10° 5° (N) 1,559 6.0 -6.1°
Maximum altitude 16:16:02 43° 78° (ENE) 632 3.7 -6.7°
Drops below altitude 10° 16:19:16 10° 152° (SSE) 1,549 5.9 -7.3°
Sets 16:21:23 0° 159° (SSE) 2,414 6.9 -7.7°
